[[{"header":{"parameterUnit":"m.s-1","parameterCategory":1,"la1":30.2991,"la2":30.254,"lo1":-89.0895,"lo2":-89.0444,"dy":0.0017,"dx":0.0017,"nx":28,"ny":28,"refTime":"2025-12-17T09:00:00:Z","depth":0,"parameterNumber":2,"parameterNumberName":"U-component_of_WINDS"},"data":[0,0,0,0,0,0,0,0,0,0,0,0,0,0,0,0,0,0,0,0,0,0,0,0,0,0,0,0,0,0,0,0,0,0,0,0,0,0,0,0,0,0,0,0,0,0,0,0,0,0,0,0,0,0,0,0,0,0,2.3609,2.361,0,2.3676,2.3677,2.3678,2.3655,2.3653,2.3652,2.365,2.3722,2.3725,2.3728,0,0,0,0,0,0,0,0,0,0,0,0,0,2.3466,2.3469,2.3609,2.361,2.3611,2.3676,2.3677,2.3678,2.3655,2.3653,2.3651,2.365,2.3721,2.3725,2.3729,0,0,0,0,0,0,0,0,0,0,0,0,0,2.353,2.3469,2.3609,2.3607,2.3608,2.3676,2.3677,2.3678,2.3655,2.3653,2.3651,2.3649,2.3719,2.3724,2.3729,2.3804,0,0,2.3744,2.3746,0,0,0,0,0,0,0,0,2.3526,2.3535,2.3606,2.3607,2.3608,2.3655,2.3653,2.372,2.3656,2.3637,2.365,2.3648,2.3701,2.3708,2.3725,2.3807,2.381,2.3745,2.3748,2.375,2.3751,0,0,0,0,0,0,0,2.3522,2.3532,2.3636,2.3608,2.3609,2.3604,2.3611,2.3665,2.3681,2.3639,2.3637,2.3645,2.3701,2.3721,2.3727,2.3811,2.3744,2.3749,2.3752,2.3754,2.3962,2.3965,0,0,0,0,0,0,2.3517,2.3529,2.3633,2.3638,2.3561,2.3609,2.3616,2.3642,2.368,2.3684,2.3647,2.3644,2.3713,2.3721,2.3729,2.3822,2.375,2.3754,2.3757,2.396,2.3963,2.3966,0,0,0,0,0,0,2.3514,2.3526,2.3631,2.3583,2.3596,2.3614,2.3643,2.3644,2.3663,2.3687,2.369,2.3663,2.3712,2.3722,2.3786,2.3824,2.3756,2.3761,2.3957,2.3961,2.3964,2.4006,0,0,0,0,0,0,2.351,2.3525,2.3552,2.3584,2.3598,2.3685,2.3645,2.3647,2.3672,2.3668,2.3703,2.3706,2.3711,2.3779,2.3791,2.3829,2.3765,2.3954,2.3959,2.3963,2.4002,2.4011,2.4019,0,0,0,0,0,2.3505,2.3561,2.3554,2.3567,2.3633,2.3687,2.3696,2.3699,2.3675,2.3703,2.3719,2.3705,2.3818,2.3786,2.3799,2.384,2.3951,2.3957,2.3963,2.3998,2.4009,2.4019,0,0,0,0,0,0,2.3534,2.3565,2.3557,2.3626,2.3654,2.3683,2.3719,2.3711,2.3747,2.3742,2.3746,2.3754,2.382,2.3836,2.38,2.3916,2.3881,2.389,2.3903,2.3914,2.3923,2.3918,2.3769,0,0,0,0,0,2.3549,2.3589,2.3615,2.3673,2.3687,2.3701,2.3725,2.3725,2.3755,2.3767,2.3787,2.3818,2.386,2.3888,2.3928,2.4004,2.4013,2.4039,2.4047,2.4055,2.4063,2.4107,2.412,2.3985,2.3985,2.3985,0,0,2.3579,2.3601,2.3626,2.3679,2.3701,2.3745,2.3711,2.3758,2.3791,2.3774,2.3836,2.3852,2.3887,2.3958,2.399,2.3974,2.4102,2.4062,2.4068,2.4072,2.4115,2.4127,2.4139,2.3989,2.3988,2.3988,0,0,2.3657,2.3676,2.3728,2.3752,2.3785,2.3795,2.3807,2.3839,2.3849,2.3911,2.39,2.3941,2.4013,2.4039,2.4062,2.4153,2.4143,2.4166,2.4213,2.4256,2.4267,2.4276,2.4312,2.4324,2.4174,2.4174,2.4174,0,2.369,2.3754,2.3756,2.3805,2.383,2.3817,2.3871,2.3893,2.3939,2.3958,2.3938,2.4031,2.4053,2.4131,2.4154,2.4172,2.4189,2.4163,2.4265,2.4275,2.4284,2.4317,2.433,2.4177,2.4177,2.4176,2.4176,0,2.3795,2.3841,2.3879,2.3923,2.3953,2.4004,2.4015,2.4045,2.4043,2.4056,2.4121,2.4148,2.4194,2.4213,2.4211,2.4293,2.4282,2.4264,2.4229,2.4299,2.4331,2.4344,2.4181,2.418,2.4179,2.4178,0,0,2.3892,2.3939,2.3953,2.3975,2.4013,2.4049,2.4101,2.4146,2.4173,2.4206,2.4251,2.4314,2.4299,2.4325,2.4327,2.4365,2.4439,2.4343,2.4344,2.4362,2.4534,2.4548,2.4563,2.4433,2.4435,2.4437,2.4532,0,2.3975,2.4065,2.407,2.4152,2.4196,2.4186,2.4232,2.4261,2.4275,2.4315,2.433,2.4376,2.4351,2.4367,2.4404,2.4422,2.4474,2.4415,2.4478,2.448,2.447,2.4579,2.4594,2.4681,2.4544,2.4546,2.4547,0,2.4082,2.4119,2.4206,2.4241,2.426,2.43,2.4345,2.4382,2.4417,2.4425,2.4455,2.4453,2.4509,2.4472,2.4551,2.4511,2.4537,2.455,2.4554,2.456,2.4518,2.4591,2.4709,2.4723,2.4567,2.4565,2.4564,0,2.4147,2.4218,2.428,2.4299,2.4341,2.437,2.4389,2.4421,2.445,2.4489,2.4508,2.4553,2.4578,2.4614,2.4625,2.4597,2.4705,2.4668,2.4715,2.4715,2.4738,2.4737,2.4865,2.4753,2.4753,2.4752,2.4752,0,2.4239,2.4293,2.431,2.4349,2.4411,2.4417,2.4478,2.4496,2.4525,2.4569,2.4563,2.4604,2.4615,2.4659,2.4668,2.4734,2.4745,2.4754,2.4756,2.4755,2.4755,2.4773,2.4768,2.4756,2.4755,2.4755,2.4754,0,2.4321,2.4335,2.4402,2.4437,2.4447,2.4491,2.4522,2.456,2.4574,2.4629,2.4643,2.4665,2.4717,2.4731,2.4793,2.4799,2.4878,2.4873,2.4866,2.4866,2.4913,2.4909,2.5058,2.5079,2.4952,2.4953,2.4954,0,2.438,2.4422,2.4461,2.449,2.451,2.4556,2.4585,2.4594,2.4625,2.4669,2.4703,2.4754,2.4796,2.488,2.4902,2.4951,2.4949,2.4998,2.4956,2.4955,2.4952,2.495,2.4956,2.5006,2.5007,2.5008,2.5009,0,2.4483,2.4488,2.453,2.4575,2.4611,2.4647,2.4681,2.4705,2.4719,2.4755,2.4808,2.484,2.4905,2.4957,2.5006,2.5028,2.5023,2.5022,2.5036,2.5036,2.5031,2.5037,2.4889,2.5019,2.5018,2.5017,2.5016,2.5016,2.4556,2.4594,2.4629,2.4677,2.4704,2.4738,2.4776,2.4795,2.4839,2.4892,2.4895,2.4953,2.4991,2.5057,2.5082,2.5129,2.5115,2.5134,2.5139,2.5144,2.5149,2.5023,2.5138,2.5137,2.5137,2.5137,2.5137,0,2.4661,2.4684,2.4727,2.4777,2.4815,2.4806,2.4845,2.4878,2.4929,2.4964,2.5005,2.5068,2.512,2.5147,2.5199,2.5232,2.5231,2.5245,2.5244,2.5249,2.5158,2.5142,2.5246,2.5246,2.5246,2.5245,2.5245,2.5245,2.472,2.4785,2.4795,2.4874,2.4897,2.4953,2.4977,2.5009,2.5037,2.5107,2.5149,2.5167,2.52,2.5255,2.5302,2.531,2.533,2.5347,2.5352,2.5266,2.5255,2.5245,2.523,2.535,2.5351,2.544,2.5441,2.5442]},{"header":{"parameterUnit":"m.s-1","parameterCategory":1,"la1":30.2991,"la2":30.254,"lo1":-89.0895,"lo2":-89.0444,"dy":0.0017,"dx":0.0017,"nx":28,"ny":28,"refTime":"2025-12-17T09:00:00:Z","depth":0,"parameterNumber":3,"parameterNumberName":"V-component_of_WINDS"},"data":[0,0,0,0,0,0,0,0,0,0,0,0,0,0,0,0,0,0,0,0,0,0,0,0,0,0,0,0,0,0,0,0,0,0,0,0,0,0,0,0,0,0,0,0,0,0,0,0,0,0,0,0,0,0,0,0,0,0,0.1482,0.1483,0,0.1618,0.162,0.1621,0.1683,0.1683,0.1683,0.1683,0.1823,0.1827,0.183,0,0,0,0,0,0,0,0,0,0,0,0,0,0.1274,0.1278,0.1481,0.1483,0.1485,0.1618,0.162,0.1622,0.1683,0.1683,0.1683,0.1683,0.1822,0.1826,0.1831,0,0,0,0,0,0,0,0,0,0,0,0,0,0.1383,0.1279,0.1481,0.1532,0.1538,0.1617,0.162,0.1622,0.1683,0.1683,0.1683,0.1683,0.182,0.1826,0.1831,0.1872,0,0,0.1849,0.1852,0,0,0,0,0,0,0,0,0.1377,0.139,0.1523,0.1528,0.1535,0.1633,0.1598,0.1706,0.1683,0.1628,0.1683,0.1682,0.176,0.1771,0.1797,0.1878,0.1884,0.185,0.1853,0.1856,0.1857,0,0,0,0,0,0,0,0.1369,0.1385,0.1536,0.1524,0.1532,0.1547,0.1563,0.1619,0.1694,0.1633,0.1638,0.1653,0.1763,0.1791,0.1801,0.1886,0.185,0.1855,0.1858,0.1861,0.2007,0.2007,0,0,0,0,0,0,0.1353,0.1378,0.1531,0.154,0.1454,0.1551,0.1568,0.1602,0.1693,0.1707,0.1653,0.1655,0.1781,0.1794,0.1806,0.1859,0.1856,0.1861,0.1864,0.2006,0.2007,0.2007,0,0,0,0,0,0,0.1349,0.1366,0.1526,0.146,0.1482,0.1555,0.1592,0.1605,0.1633,0.1708,0.1722,0.1667,0.1782,0.1798,0.1855,0.1864,0.1864,0.1869,0.2006,0.2007,0.2007,0.1965,0,0,0,0,0,0,0.1342,0.1364,0.138,0.146,0.1485,0.1572,0.1593,0.1608,0.1642,0.1647,0.1726,0.1738,0.1783,0.1846,0.186,0.1872,0.1874,0.2005,0.2006,0.2007,0.1966,0.1964,0.1962,0,0,0,0,0,0.1335,0.1363,0.1381,0.1399,0.1507,0.1573,0.1587,0.1637,0.1643,0.166,0.1708,0.1736,0.1861,0.1851,0.1868,0.1882,0.2005,0.2006,0.2007,0.1966,0.1964,0.1962,0,0,0,0,0,0,0.1283,0.1375,0.1395,0.145,0.1503,0.1583,0.1606,0.1633,0.1686,0.1688,0.1748,0.1765,0.1817,0.1855,0.1843,0.1925,0.1935,0.194,0.1899,0.1897,0.1896,0.1886,0.1878,0,0,0,0,0,0.1278,0.1324,0.1401,0.1443,0.1468,0.1532,0.1563,0.1597,0.1654,0.1677,0.173,0.1784,0.1836,0.1868,0.192,0.1971,0.1989,0.1989,0.1987,0.1986,0.1989,0.2018,0.2019,0.201,0.201,0.201,0,0,0.1268,0.1324,0.1349,0.1433,0.1479,0.1525,0.1551,0.1599,0.1633,0.1684,0.1741,0.1782,0.1846,0.19,0.1927,0.1934,0.1995,0.1987,0.1985,0.1989,0.2019,0.202,0.2021,0.2011,0.2011,0.2011,0,0,0.1274,0.1321,0.136,0.1404,0.1472,0.1514,0.1523,0.1599,0.1628,0.1686,0.1725,0.1767,0.1854,0.1899,0.1933,0.1954,0.1982,0.1969,0.1961,0.1989,0.199,0.1991,0.1999,0.2001,0.1972,0.1972,0.1972,0,0.1254,0.1325,0.1377,0.1423,0.1458,0.1506,0.1546,0.1586,0.1667,0.1691,0.1697,0.1808,0.1855,0.192,0.1925,0.1951,0.1963,0.1961,0.1985,0.1987,0.1989,0.1997,0.1999,0.197,0.197,0.1971,0.1971,0,0.1296,0.1345,0.1368,0.1445,0.1483,0.1526,0.1584,0.1617,0.1647,0.1688,0.1747,0.1804,0.1868,0.1886,0.1916,0.1955,0.1958,0.1974,0.1985,0.1987,0.1995,0.1999,0.1967,0.1968,0.1969,0.1969,0,0,0.1275,0.1378,0.1386,0.1421,0.1499,0.1538,0.1582,0.1644,0.1671,0.1725,0.1764,0.1836,0.1851,0.189,0.1925,0.195,0.1963,0.1963,0.1966,0.1962,0.201,0.1997,0.2,0.1981,0.1982,0.1983,0.2004,0,0.1291,0.1373,0.1421,0.1483,0.1529,0.1574,0.1613,0.1664,0.1704,0.1748,0.1792,0.1842,0.1858,0.1882,0.1908,0.1956,0.1973,0.1955,0.2018,0.202,0.2001,0.2005,0.1992,0.201,0.2008,0.2009,0.2009,0,0.1323,0.1375,0.1442,0.1513,0.1534,0.1568,0.1629,0.1671,0.173,0.1757,0.1799,0.1834,0.1883,0.1889,0.1957,0.1943,0.1971,0.1998,0.2,0.2009,0.2015,0.2014,0.2017,0.2019,0.2015,0.2014,0.2014,0,0.13,0.1388,0.1439,0.1467,0.1552,0.1575,0.1611,0.167,0.1705,0.1757,0.178,0.1838,0.1869,0.1913,0.1963,0.1963,0.2025,0.2036,0.2049,0.2048,0.2061,0.206,0.2069,0.2078,0.2078,0.2078,0.2078,0,0.1315,0.1354,0.143,0.1462,0.1506,0.156,0.1604,0.1644,0.1695,0.1735,0.1777,0.1814,0.1877,0.1921,0.196,0.201,0.2024,0.2048,0.2058,0.2044,0.2041,0.2065,0.2065,0.2079,0.2079,0.2079,0.2078,0,0.1298,0.1351,0.1409,0.1485,0.1504,0.1534,0.1599,0.1631,0.1672,0.1722,0.1737,0.1802,0.1856,0.1909,0.1982,0.2009,0.2058,0.2071,0.2038,0.2044,0.2054,0.2053,0.208,0.2086,0.2089,0.2089,0.2089,0,0.1304,0.1335,0.1413,0.1443,0.1479,0.1526,0.1561,0.1615,0.1649,0.1718,0.1742,0.1799,0.1848,0.1933,0.1986,0.2042,0.2057,0.2063,0.2066,0.2052,0.2058,0.2056,0.2059,0.2061,0.2061,0.2061,0.2061,0,0.1309,0.1334,0.1382,0.144,0.148,0.1528,0.1577,0.1599,0.1663,0.1699,0.1755,0.1793,0.1867,0.1923,0.1985,0.2023,0.2052,0.2059,0.2065,0.2052,0.2032,0.2043,0.2034,0.2058,0.2059,0.2059,0.2059,0.2059,0.1305,0.1335,0.1394,0.1447,0.1489,0.1534,0.1568,0.1613,0.1661,0.1725,0.1754,0.181,0.1868,0.1954,0.1991,0.2035,0.2043,0.2052,0.2054,0.2056,0.2053,0.2024,0.2047,0.2047,0.2047,0.2047,0.2047,0,0.1313,0.1353,0.1401,0.1468,0.1509,0.1533,0.1588,0.1621,0.167,0.1722,0.1768,0.1832,0.1887,0.1944,0.2002,0.2027,0.2041,0.204,0.2039,0.2047,0.2043,0.2032,0.2027,0.2027,0.2027,0.2027,0.2027,0.2027,0.1322,0.1373,0.1404,0.1477,0.1517,0.1572,0.1602,0.1643,0.1685,0.1754,0.1799,0.1836,0.189,0.1952,0.2003,0.2018,0.2038,0.2032,0.2051,0.2046,0.2048,0.2049,0.2039,0.2036,0.2036,0.2053,0.2053,0.2053]}]]